Location: Barrio de Buenos Aires
(28.4500°N, 16.2667°W)
Time: 14:59:00
(UTC+00:00)

SWIFT - Pass Details

Date: 24 January 2020
Orbit: 545 x 561 km, 20.6° (Epoch: 22 February)

Event Time Altitude Azimuth Distance (km) Brightness Sun altitude
Rises 20:02:01 0° 251° (WSW) 2,690 7.5 -18.6°
Reaches altitude 10° 20:04:32 10° 240° (WSW) 1,800 6.0 -19.1°
Maximum altitude 20:08:06 27° 181° (S) 1,053 3.8 -19.9°
Enters shadow 20:09:27 23° 149° (SSE) 1,190 3.8 -20.1°
